User: anonymous   Login
Location: Unspecified
(0.0000°N, 0.0000°E)
Time: 22:47:27
(UTC+00:00)
Language:

CUBEBUG 1 - Orbit

View from above orbital plane
View from above orbital plane
View from above satellite
View from above satellite

Ground track
Ground track

The orbit data is extracted from the following two-line orbital elements,

1 39153U 13018D   17113.80849268 +.00000612 +00000-0 +87556-4 0  9996
2 39153 097.9841 206.3996 0016191 220.7975 139.2025 14.80148133215548
Epoch (UTC): 23 April 2017 19:24:13
Eccentricity: 0.0016191
inclination: 97.9841°
perigee height: 617 km
apogee height: 640 km
right ascension of ascending node: 206.3996°
argument of perigee: 220.7975°
revolutions per day: 14.80148133
mean anomaly at epoch: 139.2025°
orbit number at epoch: 21554

The dashed part of the orbit path shows where the satellite is in the earth's shadow,  

DLR